Weather observations for the past three days for
Orlando Executive Airport
Imperial (Metric)
Date Time (edt) Wind (mph) Vis. (mi.) Weather Sky Cond. Temperature (ºF) Relative Humidity Wind Chill (°F) Heat Index (°F) Pressure Precipitation (in)
Air Dwpt 6 hour altimeter (in) sea level (mb) 1 hr 3 hr 6 hr
Max. Min.
16 10:53 S 8 10.00 Fair CLR 87.8 0 0% 30.09 0.0
16 09:53 SW 6 10.00 Partly Cloudy SCT012 84 79 85% 96 30.09 0.0
16 08:53 S 6 10.00 Fair CLR 82 79 90% 92 30.09 1019.0
16 07:53 SE 5 10.00 Fair CLR 79 77 94% 83 30.07 1018.6
15 20:53 N 6 10.00 Mostly Cloudy FEW015 BKN060 77 75 94% 78 30.07 1018.3
15 19:53 N 6 10.00 Thunderstorm in Vicinity CLR 75 73 94% 73 30.08 1019.0
15 17:53 S 9 7.00 Mostly Cloudy BKN055 79 75 88% 83 30.06 1018.1 0.02
15 16:53 NW 10 1.75 Thunderstorm Heavy Rain Fog/Mist FEW032 BKN044 OVC080 80.1 75.9 87% 85 30.03 1017.3 0.06 0.06
15 15:53 Calm 10.00 Thunderstorm in Vicinity SCT075 93 75 56% 104 30.03 1017.2
15 14:53 Calm 10.00 Mostly Cloudy BKN050 91.9 75 58% 103 30.06 1018.2
15 13:53 Vrbl 3 10.00 Partly Cloudy SCT037 91 77 91 79 64% 105 30.09 1019.0
15 12:53 N 5 10.00 Mostly Cloudy BKN027 BKN055 91 75.9 61% 103 30.11 1019.8
15 11:53 Vrbl 3 10.00 Mostly Cloudy BKN027 89.1 78.1 70% 103 30.12 1020.2
15 09:53 Calm 10.00 Fair CLR 84 77 80% 94 30.14 1020.7
15 08:53 Calm 10.00 Fair CLR 82 75 79% 89 30.13 1020.6
15 07:53 Calm 10.00 Fair CLR 79 75 79 75 88% 83 30.12 1020.2
15 06:53 Calm 10.00 Fair CLR 75.9 75 97% 75 30.1 1019.7
15 05:53 Calm 10.00 Fair CLR 75 73.9 96% 73 30.1 1019.4
15 03:53 Calm 10.00 Fair CLR 77 73.9 90% 78 30.09 1019.1
15 02:53 Calm 10.00 Fair CLR 75.9 75 97% 75 30.1 1019.4
15 01:53 N 3 10.00 Fair CLR 77 75 78.1 75.9 94% 78 30.12 1020.0 0.01
15 00:53 Calm 10.00 Fair CLR 77 75 94% 78 30.12 1020.0
14 23:53 Calm 10.00 Fair CLR 77 75 94% 78 30.12 1020.1
14 22:53 Calm 10.00 Fair CLR 75.9 75 97% 75 30.12 1020.2 0.01
14 21:53 W 6 10.00 Fair CLR 75.9 75 97% 75 30.13 1020.5
14 20:53 SW 9 10.00 Partly Cloudy FEW028 SCT034 75.9 73.9 94% 75 30.13 1020.6 0.01
14 19:53 W 6 10.00 Light Rain FEW070 SCT110 77 73.9 93.9 73.9 90% 78 30.12 1020.3 0.01
14 18:53 SW 7 10.00 Thunderstorm in Vicinity Light Rain FEW028 SCT120 77 73.9 90% 78 30.12 1020.2 0.26
14 17:53 E 23 G 35 0.75 Thunderstorm Heavy Rain Fog/Mist and Breezy OVC036 75 73.9 96% 73 30.11 1019.8
14 16:53 NE 25 G 38 10.00 Thunderstorm Light Rain and Breezy BKN039 BKN050 BKN060 84.9 75 72% 93 30.08 1018.8
14 15:53 NE 6 10.00 Partly Cloudy FEW060 SCT085 SCT110 93 73.9 54% 103 30.09 1019.0
14 14:53 S 3 10.00 Mostly Cloudy BKN055 BKN075 93 73.9 54% 103 30.11 1019.9
14 13:53 Calm 10.00 Fair CLR 93 73 93.9 82 52% 102 30.14 1020.8
14 12:53 Vrbl 6 10.00 Fair CLR 93.9 75 54% 106 30.16 1021.4
14 11:53 Vrbl 3 10.00 Fair CLR 91 75 59% 102 30.16 1021.6
14 10:53 Calm 10.00 Fair CLR 89.1 75 63% 99 30.17 1021.8
14 09:53 SW 3 10.00 Fair CLR 86 75.9 72% 96 30.17 1021.8
14 08:53 Calm 10.00 Fair CLR 82.9 77 82% 92 30.17 1021.9
14 07:53 N 3 10.00 Fair CLR 82 75 82 78.1 79% 89 30.16 1021.4
14 06:53 Calm 10.00 Fair CLR 79 75 88% 83 30.15 1021.3
14 05:53 Calm 10.00 Fair CLR 79 75 88% 83 30.15 1021.1
14 04:53 Calm 10.00 Fair CLR 79 75 88% 83 30.14 1020.9
14 03:53 Calm 10.00 Fair CLR 79 75.9 90% 83 30.15 1021.0
14 02:53 S 7 10.00 Fair CLR 79 75.9 90% 83 30.16 1021.5
14 01:53 Calm 10.00 Fair CLR 79 75.9 82 78.1 90% 83 30.18 1022.1
13 23:53 SE 3 10.00 Fair CLR 78.1 75 90% 81 30.19 1022.5
13 22:53 SE 6 10.00 Fair CLR 79 77 94% 83 30.18 1022.2
13 21:53 NE 5 10.00 Fair CLR 80.1 78.1 94% 86 30.16 1021.4
13 20:53 E 3 10.00 Fair CLR 80.1 77 90% 86 30.18 1022.0
13 19:53 S 8 10.00 Mostly Cloudy FEW065 BKN095 BKN110 82 78.1 96.1 79 88% 91 30.19 1022.6 0.06 0.17
13 18:53 E 8 7.00 Light Rain SCT080 OVC110 81 77 88% 88 30.18 1022.2 0.08
13 17:53 SE 9 5.00 Rain SCT046 BKN090 BKN110 80.1 75 85% 85 30.15 1021.2 0.03
13 16:53 NW 13 10.00 Thunderstorm in Vicinity FEW050 93.9 73.9 52% 104 30.12 1020.1
13 15:53 S 8 10.00 Fair CLR 93.9 72 49% 102 30.14 1020.8
13 14:53 S 12 10.00 Partly Cloudy SCT050 93.9 72 49% 102 30.16 1021.4
13 13:53 S 10 10.00 Fair CLR 93 72 93 81 50% 101 30.17 1021.9
13 12:53 S 5 10.00 Fair CLR 91 73 56% 100 30.2 1022.7
13 11:53 Calm 10.00 Partly Cloudy SCT042 91 75 59% 102 30.2 1022.9
Date Time (edt) Wind (mph) Vis. (mi.) Weather Sky Cond. Air Dwpt Max. Min. Relative Humidity Wind Chill (°F) Heat Index (°F) altimeter (in) sea level (mb) 1 hr 3 hr 6 hr
6 hour
Temperature (ºF) Pressure Precipitation (in)